Starlink 32351

operational
NORAD ID: 61529 Int'l Des: 2024-183 Owner: SPXS Country: US Constellation: starlink
LEOCIRCULAR

About Starlink 32351

Description loading...

Live Position

Loading 3D Globe...

Upcoming Passes

Altitude History

Altitude vs Time

uPlot chart will show altitude changes over time

Two-Line Element Set

1 61529U 24183W 25258.64883308 -.00002414 00000-0 -69438-4 0 9990
2 61529 53.1616 232.6130 0000476 71.8131 288.2921 15.30193481 52893
Epoch: Sep 15, 2025 • Age: 19 hours

Current Status

Altitude 481.4 km
Velocity 7.63 km/s
Sub-Earth Point 53.01°N, 169.87°E
Launch Date Oct 15, 2024
Age 0.9 years
Type internet

Technical Details

Classification Payload
Mass 730.00 kg
Dry Mass 700.00 kg
Total Mass 730.00 kg
Length 0.30 m
Diameter 4.10 m
Span 29.00 m
Shape Box + pan
Manufacturer SPXS
Bus Type Starlink V2M
Phase Status In Orbit
Owner/State SPXS/US

Large Constellations

Loading constellations...